Location: ???????
(55.4362°N, 38.1183°E)
Time: 15:01:43
(UTC+00:00)

Lacrosse 4 Rocket - Pass Details

Date: 31 October 2021
Orbit: 537 x 619 km, 68.0° (Epoch: 03 December)

Event Time Altitude Azimuth Distance (km) Brightness Sun altitude
Rises 14:41:14 0° 313° (NW) 2,821 5.4 -7.6°
Reaches altitude 10° 14:43:46 10° 300° (WNW) 1,931 4.8 -7.9°
Maximum altitude 14:47:15 24° 247° (WSW) 1,255 4.2 -8.4°
Drops below altitude 10° 14:50:48 10° 193° (SSW) 1,956 4.5 -8.9°
Sets 14:53:23 0° 180° (S) 2,865 5.1 -9.3°
